User: anonymous   Login
Location: Arrakis Observatory
(44.1122°N, 95.7153°W)
Time: 14:34:23
(UTC-06:00)
Language:

Iridium 35 - Orbit

View from above orbital plane
View from above orbital plane
View from above satellite
View from above satellite

Ground track
Ground track

The orbit data is extracted from the following two-line orbital elements,

1 24966U 97056B   17058.38929436  .00000160  00000-0  50137-4 0  9996
2 24966  86.3998   4.5929 0002216  85.0606 275.0842 14.34218160 16798
Epoch (UTC): 27 February 2017 09:20:35
Eccentricity: 0.0002216
inclination: 86.3998°
perigee height: 776 km
apogee height: 779 km
right ascension of ascending node: 4.5929°
argument of perigee: 85.0606°
revolutions per day: 14.34218160
mean anomaly at epoch: 275.0842°
orbit number at epoch: 1679

The dashed part of the orbit path shows where the satellite is in the earth's shadow,  

DLR